Regional Weather Roundup
Issued by NWS San Diego, CA

Home | Current Version | Previous Version | Text Only | Print | Product List | Glossary On
Versions: 1 2 3 4 5 6 7 8 9 10 11 12 13 14 15 16 17 18 19 20 21 22 23 24 25 26 27 28 29 30 31 32 33 34 35 36 37 38 39 40 41 42 43 44 45 46 47 48 49 50
000
ASUS46 KSGX 030111
RWRSGX

SAN DIEGO HOURLY WEATHER ROUNDUP
NATIONAL WEATHER SERVICE SAN DIEGO CA
500 PM PST FRI DEC 02 2016

NOTE: "FAIR" INDICATES FEW OR NO CLOUDS BELOW 12,000 FEET WITH NO
SIGNIFICANT WEATHER AND/OR OBSTRUCTIONS TO VISIBILITY.

CAZ042-043-060-061-PZZ750-775-030200-

GREATER SAN DIEGO AREA

CITY           SKY/WX    TMP DP  RH WIND       PRES   REMARKS
SAN DIEGO AP   PTCLDY    66  16  14 N10       29.96R
NATIONAL CITY    N/A     63  30  29 N3        29.96R
CHULA VISTA      N/A     62  46  56 W1        29.87R
IMPERIAL BEACH PTCLDY    59  44  57 S5        29.96R
BROWN FIELD    MOCLDY    59  38  45 S7        29.96R
MIRAMAR MCAS   PTCLDY    64  20  18 N12       29.95R
MONTGOMERY FLD CLEAR     62  18  18 NW10      29.95R

$$

NORTH SAN DIEGO COUNTY

CITY           SKY/WX    TMP DP  RH WIND       PRES   REMARKS
CAMP PENDLETON CLEAR     61  13  15 N14G22    29.97R
OCEANSIDE AP   CLEAR     62  15  16 NE14G20   29.96R
OCEANSIDE HBR    N/A     62  18  18 N3        29.99R
VISTA            N/A     60  21  22 NE1       29.95R
CARLSBAD       CLEAR     61  16  17 N8        29.95R
DEL MAR          N/A     61  22  22 CALM      29.98R
LA JOLLA SCRIP   N/A     62  23  22 NE12      29.96R
FALLBROOK        N/A     59  20  22 W10       29.95S
ESCONDIDO        N/A     61  22  22 N5        29.98R
SAN MARCOS       N/A     60  20  21 NE10      29.99R
POWAY            N/A     61  23  23 NE1       29.98R

$$

EAST SAN DIEGO COUNTY

CITY           SKY/WX    TMP DP  RH WIND       PRES   REMARKS
RAMONA         CLEAR     55  15  20 NE18G28   29.97R
SANTEE LAKES     N/A     63  26  24 W13       29.94R
LA MESA          N/A     62  26  25 N1        29.89R
JAMUL            N/A     59  28  30 CALM      29.97R
DESCANSO N       N/A     45  19  36 NE2       29.96R
CAMPO            N/A     47  15  27 NE8       29.94R

$$

ORANGE COUNTY AND THE LOS ANGELES BASIN

CITY           SKY/WX    TMP DP  RH WIND       PRES   REMARKS
JOHN WAYNE AP  PTCLDY    61   9  12 NE24G32   30.01R
LAGUNA BEACH     N/A     61  19  19 NW2       29.95R
LAKE FOREST FR   N/A     56   8  14 NE9       29.90R
HUNTINGTON BCH   N/A     61  18  19 NE3       30.03R
LOS ALAMITOS   CLEAR     60  16  18 E8        30.01R
FULLERTON      PTCLDY    63  38  39 NE9       30.01R
LONG BEACH     PTCLDY    63   8  11 NE8       30.01R
L.A. AP        PTCLDY    62   6  11 NE14G25   30.02R
L.A. DOWNTOWN  PTCLDY    61   7  11 VRB6      30.01S

$$

THE INLAND EMPIRE

CITY           SKY/WX    TMP DP  RH WIND       PRES   REMARKS
CORONA         PTCLDY    57  11  16 NE14G29   30.05R
CHINO          PTCLDY    59   9  13 NE12G25   30.02R
ONTARIO        PTCLDY    56   7  14 NE23G36   30.01R
SAN BERNARDINO FAIR      57   9  14 NE28G44   30.05R
RIVERSIDE AP   PTCLDY    57  12  17 NE10G22   30.05R
MORENO VALLEY    N/A     53  22  30 E9        28.14R
MARCH ARB      PTCLDY    54  10  17 N23       30.01R
PERRIS           N/A     54  20  26 SE14      30.03S
HEMET EAST       N/A     53  11  19 CALM      30.06R
FRENCH VALLEY  NOT AVBL
TEMECULA         N/A     58  25  27 NE2       30.02R

$$

SAN BERNARDINO AND RIVERSIDE COUNTY MOUNTAINS

CITY           SKY/WX    TMP DP  RH WIND       PRES   REMARKS
BIG BEAR AP    PTCLDY    27   3  36 NE10G24   30.06R WCI  17
PINE COVE        N/A     31  12  44 CALM      30.06R

$$

SOUTHERN DESERT INCLUDING THE COACHELLA VALLEY

CITY           SKY/WX    TMP DP  RH WIND       PRES   REMARKS
PALM SPRINGS   PTCLDY    60   8  12 NW17G28   30.08R
PALM DESERT      N/A     61  14  16 CALM      31.00S
THERMAL        PTCLDY    61  11  14 N9        30.02R
BLYTHE         CLEAR     60  20  21 N13       29.97R
IMPERIAL AP    CLEAR     59  24  26 N14       29.97R
EL CENTRO NAS  PTCLDY    57  25  29 N13       30.00R
YUMA AZ        CLOUDY    63  21  20 N15       29.94
MEXICALI       CLEAR     63  10  13 N12       29.97R

$$

UPPER DESERT

CITY           SKY/WX    TMP DP  RH WIND       PRES   REMARKS
VICTORVILLE AP   N/A     45   1  16 NE12      30.13R
HESPERIA         N/A     44   9  23 NE3       30.30R
PALMDALE       PTCLDY    45   6  20 E16       30.12R
LANCASTER      PTCLDY    47   5  18 NE15      30.13R
EDWARDS AFB    CLEAR     48   4  16 NE21      30.08S
DAGGETT        PTCLDY    50   6  16 N18       30.12R
29 PALMS N     PTCLDY    50   6  16 NW17G24   30.15R
NEEDLES        PTCLDY    58  19  22 N24G31    30.02R

$$

REGIONAL REPORTS

CITY           SKY/WX    TMP DP  RH WIND       PRES   REMARKS
SANTA BARBARA  PTCLDY    57  42  57 CALM      30.06R
SANDBERG       PTCLDY    40   4  22 E23G35    30.08S WCI  30
LAS VEGAS NV   FAIR      51  11  20 N16       30.14R
PHOENIX AZ     MOCLDY    58  27  30 NW7       29.91R
TIJUANA        PTCLDY    61  34  36 W3        29.98R
ENSENADA NW      N/A     63  32  31 N10       29.91R

$$

OFFSHORE ISLANDS

CITY           SKY/WX    TMP DP  RH WIND       PRES   REMARKS
CATALINA ARPT  CLEAR     54  19  25 NE8       30.02R
SAN NICOLAS IS CLEAR     53  49  86 NW16      30.05R

$$

MARINE AND OFFSHORE BUOY REPORTS

STATION/POSITION SKY/WX   TEMP    WIND        PRES    SWELL
                          AIR SEA DIR/SP/G            HT/PER/DIR
                          (F)     (DEG/KT/KT) (MB)    (FT/S/D)
TANNER BANKS               59 62  330/ 17/ 23 1016.9R   8/330/12
S CLEMENTE BASIN           61 62  320/ 19/ 21 1014.9R   5/290/ 9
SAN NICOLAS IS.               59                N/A     7/310/13
SO. S. ROSA ISLA           57 58  330/ 16/ 17 1018.3R   8/310/13
W. S. BARBARA CH           58 58  330/ 21/ 25 1017.8R   8/310/11
M. S. BARBARA CH                  230/  8/ 10 1018.4
S. MONICA BASIN            62 60   30/ 19/ 25 1016.9S   2/270/13
S PEDRO CHANNEL               62                N/A     2/270/12
CMP PENDLETON NS              61                N/A     2/210/14
OCEANSIDE OFFSHR              63                N/A     2/190/14
TORREY PINES OTR              62                N/A     3/270/11
POINT LOMA SOUTH              62                N/A     3/270/13

$$




USA.gov is the U.S. government's official web portal to all federal, state and local government web resources and services.